CW9871 Weather Reports


time (UTC)temp
F
wind
direction
speed
knots
gust
knots
rain 1hr
in
rain 24hr
in
rain mn
in
humidity
%
barometer
mb
20260504060108 51 73 3.5 8.7 0.00 0.00 0.00 57 1007.8
20260504044619 53 52 5.2 10.4 0.00 0.00 0.00 53 1008.2
20260504043057 53 56 4.3 9.6 0.00 0.00 0.00 53 1008.1
20260504041556 54 58 4.3 8.7 0.00 0.00 0.00 53 1008.1
20260504040113 54 62 4.3 7.0 0.00 0.00 0.00 52 1008.1
20260504034607 54 70 3.5 7.8 0.00 0.00 0.00 52 1008.0
20260504033058 54 73 4.3 13.0 0.00 0.00 0.00 52 1008.1
20260504031555 53 58 4.3 8.7 0.00 0.00 0.00 54 1008.1
20260504030055 53 63 2.6 5.2 0.00 0.00 0.00 55 1008.2
20260504024555 53 65 1.7 5.2 0.00 0.00 0.00 56 1008.3
20260504023053 53 67 2.6 5.2 0.00 0.00 0.00 56 1008.5
20260504021553 53 79 3.5 7.0 0.00 0.00 0.00 56 1008.6
20260504020056 53 68 2.6 7.0 0.00 0.00 0.00 56 1008.6
20260504014555 52 82 3.5 7.0 0.00 0.00 0.00 59 1008.6
20260504013108 52 79 2.6 8.7 0.00 0.00 0.00 60 1008.7
20260504011556 52 70 2.6 7.8 0.00 0.00 0.00 62 1008.9
20260504010101 51 86 3.5 10.4 0.00 0.00 0.00 64 1008.8
20260504004608 51 104 5.2 13.9 0.00 0.00 0.00 65 1009.2
20260504003055 52 86 5.2 15.6 0.00 0.00 0.00 63 1009.2
20260504001605 53 103 5.2 13.0 0.00 0.00 0.00 60 1009.1
20260504000114 53 107 7.8 15.6 0.00 0.00 0.00 56 1008.9
20260503234554 54 86 13.9 23.5 0.00 0.00 0.00 53 1008.8
20260503233057 55 97 12.2 24.3 0.00 0.00 0.00 49 1008.6
20260503231558 56 75 7.0 17.4 0.00 0.00 0.00 46 1008.5
20260503224559 56 64 7.0 12.2 0.00 0.00 0.00 44 1008.1
20260503223101 56 77 7.0 16.5 0.00 0.00 0.00 43 1008.1
20260503221559 56 98 5.2 9.6 0.00 0.00 0.00 44 1008.4
20260503220122 56 86 5.2 13.9 0.00 0.00 0.00 43 1008.5
20260503214601 57 68 6.1 15.6 0.00 0.00 0.00 42 1008.6
20260503213103 57 58 7.0 13.9 0.00 0.00 0.00 41 1008.2
20260503211556 58 70 4.3 8.7 0.00 0.00 0.00 40 1008.1
20260503210110 58 96 6.1 13.0 0.00 0.00 0.00 39 1008.2
20260503204603 58 70 7.0 12.2 0.00 0.00 0.00 38 1008.5
20260503203059 57 79 7.0 12.2 0.00 0.00 0.00 40 1008.6
20260503201555 56 40 6.1 13.0 0.00 0.00 0.00 41 1008.8
20260503200101 56 75 9.6 15.6 0.00 0.00 0.00 40 1009.0
20260503194556 56 80 7.0 14.8 0.00 0.00 0.00 41 1009.3
20260503193056 56 70 10.4 16.5 0.00 0.00 0.00 39 1009.6
20260503191553 55 82 10.4 20.9 0.00 0.00 0.00 40 1009.8
20260503190054 55 153 7.0 13.0 0.00 0.00 0.00 38 1010.0
20260503184604 54 106 9.6 19.1 0.00 0.00 0.00 41 1010.1
20260503183056 54 103 8.7 13.9 0.00 0.00 0.00 43 1010.3
20260503181556 54 81 7.0 15.6 0.00 0.00 0.00 45 1010.4
20260503180106 55 111 6.1 13.9 0.00 0.00 0.00 44 1010.4
20260503174556 53 87 7.0 13.0 0.00 0.00 0.00 47 1010.5
20260503173108 53 96 6.1 13.0 0.00 0.00 0.00 49 1010.7
20260503171556 53 96 7.8 13.9 0.00 0.00 0.00 46 1010.8
20260503160114 53 144 4.3 11.3 0.00 0.00 0.00 47 1011.7
20260503110104 36 101 3.5 7.0 0.00 0.00 0.00 86 1013.2
20260503081553 35 0 0.0 1.7 0.00 0.00 0.00 84 1013.1
20260503071557 37 82 0.0 3.5 0.00 0.00 0.00 81 1013.0